Regional Weather Roundup
Issued by NWS

Home | Current Version | Previous Version | Graphics & Text | Print | Product List | Glossary On
Versions: 1 2 3 4 5 6 7 8 9 10 11 12 13 14 15 16 17 18 19 20 21 22 23 24 25 26 27 28 29 30 31 32 33 34 35 36 37 38 39 40 41 42 43 44 45 46 47 48 49 50
000
ASUS43 KOAX 041302
RWRNE

WEATHER ROUNDUP FOR NEBRASKA
NATIONAL WEATHER SERVICE OMAHA NE
800 AM CDT MON MAY 04 2015

NOTES: SATELLITE DATA IS BEING USED TO AUGMENT CLOUD COVER ABOVE
       12000 FEET.
       "FAIR" INDICATES FEW OR NO CLOUDS BELOW 12,000 FEET WITH NO
       SIGNIFICANT WEATHER AND/OR OBSTRUCTIONS TO VISIBILITY.

  * THESE STATIONS DO NOT REPORT WEATHER SUCH AS RAIN...SNOW OR FOG.

NEZ001>004-019>022-054>056-041400-
NEBRASKA PANHANDLE

CITY           SKY/WX    TMP DP  RH WIND       PRES   REMARKS
SCOTTSBLUFF    CLOUDY    51  38  60 E8        30.13R
ALLIANCE       CLOUDY    47  40  76 E7        30.14R
CHADRON        LGT RAIN  46  43  89 N5        30.17R
KIMBALL        CLOUDY    47  41  79 CALM      30.12R
SIDNEY         CLOUDY    49  37  63 E9        30.12R
$$

NEZ057>060-069>072-079>082-041400-
SOUTHWEST NEBRASKA

CITY           SKY/WX    TMP DP  RH WIND       PRES   REMARKS
NORTH PLATTE   CLOUDY    52  33  48 NE10      30.08R
IMPERIAL       CLOUDY    52  38  58 NE5       30.10R
MCCOOK         CLOUDY    58  41  53 NE8       30.06R
$$

NEZ005>010-023>029-035>040-094-041400-
NORTH CENTRAL NEBRASKA

CITY           SKY/WX    TMP DP  RH WIND       PRES   REMARKS
VALENTINE      PTSUNNY   50  32  50 E5        30.16R
AINSWORTH      CLOUDY    51  33  50 NE8       30.15S
BROKEN BOW     CLOUDY    55  30  38 NE17      30.07R
ORD            CLOUDY    55  30  38 NE10      30.08R
$$

NEZ041-046>049-061>064-073>077-083>087-041400-
SOUTH CENTRAL NEBRASKA

CITY           SKY/WX    TMP DP  RH WIND       PRES   REMARKS
GRAND ISLAND   CLOUDY    57  36  45 NE12      30.07R
AURORA         CLOUDY    55  44  67 NE12      30.07R
HASTINGS       CLOUDY    56  43  61 NE22G29   30.02S
KEARNEY *      PTSUNNY   57  36  44 NE20G25   30.04R
$$

NEZ011>018-030>034-042>045-041400-
NORTHEAST NEBRASKA

CITY           SKY/WX    TMP DP  RH WIND       PRES   REMARKS
NORFOLK        CLOUDY    56  31  38 NE13      30.09R
BLAIR          CLOUDY    57  46  66 NE7       30.07R
COLUMBUS *     CLOUDY    55  36  47 NE17      30.06F
FREMONT        CLOUDY    57  43  57 N5        30.08R
TEKAMAH        CLOUDY    58  42  55 N8        30.08R
$$

NEZ050>053-065>068-078-088>093-041400-
SOUTHEAST NEBRASKA

CITY           SKY/WX    TMP DP  RH WIND       PRES   REMARKS
LINCOLN        CLOUDY    59  50  72 NE12      30.04R
OMAHA EPPLEY   CLOUDY    59  49  69 N14       30.04F
BEATRICE       PTSUNNY   58  55  89 NE10G16   30.02R
FALLS CITY     PTSUNNY   62  56  80 N7        30.01R
NEBRASKA CITY  CLOUDY    57  56  95 NE9       30.02S
PLATTSMOUTH    LGT RAIN  56  51  82 NE6G31    30.00F
$$

NEZ044-045-051>053-067-041400-
OMAHA AREA

CITY           SKY/WX    TMP DP  RH WIND       PRES   REMARKS
OMAHA EPPLEY   CLOUDY    59  49  69 N14       30.04F
BLAIR          CLOUDY    57  46  66 NE7       30.07R
FREMONT        CLOUDY    57  43  57 N5        30.08R
OFFUTT AFB     LGT RAIN  57  51  79 N13G20    30.00F
PLATTSMOUTH    LGT RAIN  56  51  82 NE6G31    30.00F
WAHOO          LGT RAIN  55  45  69 NE17      30.02F
$$


USA.gov is the U.S. government's official web portal to all federal, state and local government web resources and services.